Temp
57 56 56 56 57 57 56 55 55 55 55 55 55 56 56 57 57 55 56 55 55 55 55 52 52 52 52 53 53 52 51 50 49 48 46 47 46 46 49 47 48 48 47 46 45 45 44 42 45 47 49 48 49 49 50 51 52 51 51 52 54 53 52
57 57 58 58 56 56 54 54 54 53 54 54 55 55 55 56 57 55 55 54 54 54 54 52 52 52 51 50 50 50 49 49 50 49 47 45 45 44 45 45 46 45 45 45 45 45 43 42 41 41 42 46 47 49 49 50 51 52 52 52 53 53 52
56 55 55 54 54 54 53 52 52 52 52 53 53 54 54 55 54 55 54 54 53 54 54 52 51 51 50 50 50 49 49 48 48 48 46 46 46 46 45 45 44 44 44 44 43 42 41 43 42 42 41 41 41 45 48 48 50 51 52 52 52 53 52
55 54 53 52 52 52 52 51 51 51 52 52 53 53 53 54 54 55 53 53 54 54 52 51 50 50 50 49 49 49 48 47 47 47 47 47 46 46 45 45 43 43 41 41 40 41 41 39 41 41 41 43 42 43 47 49 50 50 52 51 51 52 52
55 54 53 52 52 52 51 51 51 51 51 51 51 52 52 53 53 52 53 52 52 51 51 51 50 50 50 50 49 48 48 48 48 47 46 45 45 45 44 45 44 44 43 42 43 42 42 41 40 40 41 42 42 44 48 48 50 50 50 51 52 52 52
55 55 54 54 54 53 51 50 51 50 50 51 50 51 51 52 52 52 51 51 51 51 51 51 50 50 49 49 48 47 47 47 47 46 45 45 45 44 44 45 44 44 43 44 43 43 42 42 41 40 42 43 41 42 45 46 46 49 50 51 52 52 52
56 56 55 54 53 52 51 51 50 50 50 50 50 50 51 52 52 52 52 51 51 51 51 50 50 50 49 48 48 47 47 47 47 46 46 45 45 45 45 44 44 44 43 44 43 43 42 42 41 39 39 42 41 42 44 44 46 45 47 51 52 52 52
57 56 55 54 53 51 51 50 50 50 50 50 50 51 52 51 51 51 51 50 51 50 51 50 50 49 49 49 48 47 47 47 47 46 46 45 44 44 44 44 44 43 43 44 44 43 43 42 41 41 40 39 40 39 41 43 44 44 45 49 51 51 52
57 55 54 53 53 53 52 52 51 51 50 50 50 50 51 51 50 50 51 50 50 50 50 49 49 49 48 48 48 47 47 48 46 45 45 45 44 44 44 44 43 43 43 44 44 43 43 43 42 42 42 40 38 37 39 39 41 42 45 46 49 51 52
55 55 54 53 54 54 54 53 52 50 50 50 50 50 49 50 50 50 49 49 49 49 49 49 49 49 48 48 47 46 46 46 46 45 45 44 44 44 44 43 43 43 43 43 44 44 43 43 43 43 43 41 41 38 36 36 39 39 45 47 44 49 51
56 56 55 55 55 54 53 52 52 50 50 50 50 51 50 50 50 51 49 49 49 49 49 49 49 48 48 47 47 46 46 46 46 46 45 45 44 45 44 43 43 43 43 43 42 43 43 43 43 42 42 43 43 40 38 36 37 41 42 46 47 46 49
56 56 56 56 55 54 53 52 51 49 49 50 50 49 49 49 49 49 49 48 49 48 48 48 48 48 48 47 47 46 46 46 45 45 45 45 45 44 43 42 43 42 43 42 42 43 43 43 42 43 42 43 42 41 40 38 36 41 44 42 45 48 48
57 56 56 55 55 54 53 52 50 49 48 49 48 48 48 48 48 48 48 48 48 48 48 48 48 47 47 46 46 46 45 46 45 44 44 44 44 43 43 42 42 42 42 42 42 42 42 43 43 43 43 42 42 42 41 40 37 38 44 43 44 46 48
55 56 55 55 54 53 52 50 48 48 48 47 48 48 48 48 48 48 48 49 48 47 47 47 47 47 46 45 45 45 45 45 45 44 45 43 44 43 43 42 42 42 42 42 41 42 42 42 42 42 43 42 42 41 41 40 38 39 42 46 45 45 47
54 54 54 53 52 52 50 49 48 48 47 47 48 47 47 47 47 47 48 47 47 47 47 47 47 47 46 45 45 46 45 44 44 43 43 43 43 43 42 42 42 42 42 41 41 41 41 42 42 42 42 42 41 41 42 40 39 38 38 43 44 46 46
53 53 52 52 51 50 49 48 48 47 46 46 47 47 46 46 47 47 47 46 47 47 47 47 46 46 46 46 45 45 45 44 44 43 43 42 42 42 42 42 41 42 42 42 41 41 41 41 42 42 41 42 41 41 42 41 39 38 38 40 43 43 44
52 52 51 51 50 49 48 47 48 46 46 46 46 46 46 46 46 46 46 46 46 46 46 46 46 46 46 46 45 45 44 44 44 44 43 43 43 43 42 42 41 41 41 42 41 41 41 41 41 41 41 42 41 41 42 42 41 39 39 38 41 43 44
50 50 50 49 48 48 47 46 47 46 45 45 45 45 46 46 46 46 45 45 45 45 45 45 45 45 45 45 45 45 44 44 44 43 43 44 45 43 43 43 42 42 41 42 42 41 41 41 41 42 41 42 42 42 42 41 41 41 39 38 40 43 44
48 48 49 48 47 47 46 46 46 46 46 44 44 44 44 45 46 44 44 44 44 44 44 44 45 45 45 45 44 44 44 44 44 44 44 43 42 43 43 43 43 42 42 42 42 42 42 41 42 41 41 42 42 41 41 41 41 41 40 40 40 40 43
48 48 47 46 46 46 46 45 46 45 45 44 44 43 43 43 44 43 43 43 43 43 42 43 43 43 44 44 44 44 44 43 43 43 43 43 42 42 42 42 43 42 44 43 43 42 42 42 42 41 42 41 42 40 40 41 41 40 40 39 40 41 41
48 47 47 47 46 45 45 45 44 45 45 43 43 43 43 43 43 43 42 42 42 42 42 42 41 42 44 44 44 44 44 44 44 43 42 43 43 43 42 42 42 43 42 44 45 44 43 42 42 42 42 42 41 41 40 40 40 40 39 39 39 39 41
48 48 47 46 45 44 44 44 44 44 44 43 43 42 42 42 42 41 41 41 42 42 42 42 42 43 43 43 44 44 44 44 44 43 43 43 42 43 43 42 41 40 48 51 49 47 46 45 43 42 42 41 42 41 40 40 40 40 40 39 39 41 40
47 47 46 45 44 44 43 43 43 42 42 42 41 41 41 42 42 42 41 41 41 42 42 43 46 45 45 44 43 44 44 43 44 44 44 43 43 43 43 40 43 49 49 48 47 45 43 43 44 43 43 42 41 40 40 40 40 40 39 39 39 39 38
47 46 45 44 44 44 43 43 42 41 41 41 41 42 41 41 41 41 42 41 41 41 41 43 43 41 42 43 44 44 44 43 43 43 43 43 44 45 44 42 41 46 46 45 46 44 42 42 41 41 42 42 43 43 41 40 40 40 39 39 39 39 38
46 45 45 44 44 43 43 42 41 41 40 40 41 41 40 40 40 40 40 40 40 41 42 44 40 41 41 42 45 44 44 44 43 42 42 43 44 44 43 42 42 43 44 46 46 42 42 42 41 41 40 41 41 41 41 41 40 40 40 39 38 39 39
46 45 45 44 44 43 42 42 41 41 40 40 40 40 39 39 39 39 40 40 41 42 42 42 40 41 41 41 42 43 44 44 44 42 42 42 42 43 42 43 44 43 42 45 44 41 41 41 41 40 41 41 41 42 40 39 40 42 42 40 39 39 40
46 45 45 44 43 42 42 41 41 41 41 40 39 38 38 38 38 39 40 40 39 39 41 42 40 41 41 40 40 42 42 43 43 43 42 42 43 42 41 42 42 43 43 42 41 42 41 40 39 40 40 41 41 42 41 41 40 40 42 42 40 38 41
46 45 45 44 43 42 41 40 40 41 40 39 39 38 38 38 39 39 39 38 40 40 41 41 40 40 40 40 40 41 42 42 42 41 41 41 42 41 40 39 40 41 41 41 42 42 41 40 39 39 39 41 41 41 41 42 43 43 43 42 41 41 41
46 45 44 44 43 42 41 41 40 40 39 38 37 38 37 38 39 38 38 39 40 38 39 39 39 40 40 40 41 42 41 42 42 41 41 41 41 40 40 40 41 41 41 40 42 39 40 41 39 39 39 40 41 41 42 43 42 42 43 43 43 42 43
46 45 45 44 43 42 41 40 40 41 38 37 37 37 38 38 38 37 38 39 39 38 39 40 39 40 40 40 41 41 41 41 41 41 41 41 40 40 40 43 43 41 41 41 41 38 38 40 39 39 39 39 39 40 42 43 42 41 41 40 40 40 40
47 46 45 44 43 43 42 42 41 42 39 38 37 37 38 37 36 37 38 38 40 39 39 40 39 39 40 40 42 41 41 41 40 41 41 40 39 39 41 48 47 43 41 41 39 38 37 40 40 39 39 38 39 40 41 42 41 42 42 41 40 40 40
48 46 46 45 44 43 42 42 42 41 39 39 38 37 39 37 36 36 37 38 44 41 38 41 39 39 39 40 40 40 40 41 40 39 39 42 39 38 39 41 44 44 43 41 38 38 37 40 40 40 39 38 39 39 41 40 39 40 41 40 41 42 42
48 47 46 45 45 44 43 42 41 40 39 39 38 37 38 37 37 37 38 41 42 40 40 40 41 39 39 39 39 39 39 41 41 38 37 42 43 38 38 39 41 39 38 38 37 37 37 37 40 40 39 39 39 39 42 40 41 41 40 39 39 41 40
48 47 47 45 45 44 44 42 41 40 39 38 37 37 37 37 37 37 38 38 39 38 40 40 41 38 39 39 39 39 38 40 38 38 37 39 36 37 39 40 40 40 38 38 38 37 37 37 39 42 40 40 40 41 40 40 40 40 39 39 40 40 41
48 47 47 46 45 43 44 44 42 41 41 39 38 37 37 38 37 38 37 38 39 38 42 43 39 40 39 39 39 39 39 39 38 38 38 38 36 36 37 39 40 40 38 37 37 37 37 37 38 42 41 38 37 37 40 41 40 40 39 40 40 40 40
47 47 46 46 45 43 43 43 42 41 40 40 40 39 38 38 38 38 38 38 38 39 38 42 41 41 39 38 38 39 38 38 37 40 38 41 38 39 38 38 38 39 38 37 37 37 37 37 39 41 37 37 37 37 39 40 40 39 39 39 39 39 39
48 47 47 46 45 44 43 43 42 42 42 42 41 40 40 39 39 39 39 39 39 39 40 39 41 41 41 38 38 38 38 37 38 38 38 38 37 37 38 38 39 37 37 37 37 37 37 38 40 37 37 37 37 38 40 39 39 38 38 39 38 38 38
MSLP
1020.65 1021.33 1021.73 1021.97 1022.13 1022.29 1022.45 1022.73 1022.81 1022.93 1022.93 1022.89 1022.89 1022.89 1022.89 1022.93 1023.01 1023.09 1023.09 1023.13 1023.17 1023.29 1023.37 1023.49 1023.65 1023.69 1023.65 1023.53 1023.37 1023.33 1023.29 1023.37 1023.41 1023.61 1024.21 1024.33 1024.01 1024.69 1024.73 1024.73 1024.77 1024.93 1025.01 1025.21 1025.45 1024.93 1024.61 1024.13 1024.05 1025.25 1025.41 1025.49 1025.33 1025.25 1025.17 1025.13 1024.97 1024.89 1024.85 1024.69 1024.49 1024.41 1024.25
1021.05 1021.45 1021.73 1021.97 1022.29 1022.49 1022.69 1022.97 1023.01 1023.17 1023.13 1023.09 1023.09 1023.13 1023.13 1023.17 1023.25 1023.33 1023.37 1023.41 1023.53 1023.69 1023.81 1023.97 1024.05 1023.93 1023.77 1023.65 1023.61 1023.61 1023.73 1023.85 1023.93 1024.25 1024.37 1024.93 1024.93 1025.29 1025.05 1025.13 1025.17 1025.25 1025.45 1025.73 1025.85 1025.73 1025.65 1024.93 1025.33 1026.17 1026.21 1025.77 1025.45 1025.29 1025.29 1025.29 1025.25 1025.09 1025.01 1024.89 1024.69 1024.53 1024.41
1021.29 1021.77 1022.05 1022.41 1022.61 1022.73 1022.93 1023.21 1023.33 1023.37 1023.37 1023.33 1023.37 1023.45 1023.49 1023.57 1023.61 1023.69 1023.73 1023.81 1023.93 1024.09 1024.21 1024.25 1024.09 1023.89 1023.81 1023.85 1024.01 1024.13 1024.21 1024.33 1024.57 1024.61 1024.89 1025.25 1025.29 1025.49 1025.41 1025.53 1025.37 1025.49 1025.45 1025.73 1026.09 1026.37 1026.29 1026.13 1025.37 1026.09 1026.49 1026.49 1025.77 1025.49 1025.45 1025.37 1025.33 1025.25 1025.09 1024.93 1024.77 1024.57 1024.45
1021.45 1021.77 1022.21 1022.65 1022.81 1022.93 1023.09 1023.37 1023.45 1023.53 1023.49 1023.57 1023.61 1023.73 1023.85 1023.93 1023.93 1023.97 1024.05 1024.13 1024.25 1024.37 1024.37 1024.21 1024.09 1024.13 1024.21 1024.33 1024.45 1024.49 1024.65 1024.81 1025.05 1025.13 1025.21 1025.41 1025.45 1025.53 1025.65 1025.69 1026.09 1026.21 1026.41 1026.61 1027.09 1026.93 1026.77 1026.65 1026.05 1025.97 1026.37 1026.25 1026.29 1025.53 1025.41 1025.41 1025.33 1025.33 1025.17 1025.01 1024.81 1024.65 1024.45
1021.25 1021.73 1022.13 1022.53 1022.77 1022.93 1023.21 1023.41 1023.53 1023.49 1023.65 1023.77 1023.85 1023.97 1024.13 1024.21 1024.21 1024.29 1024.29 1024.41 1024.53 1024.53 1024.49 1024.41 1024.41 1024.45 1024.61 1024.69 1024.81 1024.97 1025.17 1025.29 1025.37 1025.37 1025.53 1025.65 1025.69 1025.81 1026.09 1026.29 1026.49 1026.69 1026.81 1027.01 1027.21 1027.21 1027.01 1027.25 1027.13 1026.93 1026.61 1026.61 1026.09 1026.05 1025.73 1025.61 1025.45 1025.33 1025.25 1025.05 1024.93 1024.81 1024.61
1021.37 1021.73 1022.09 1022.49 1022.81 1023.01 1023.29 1023.41 1023.41 1023.57 1023.77 1023.89 1024.09 1024.17 1024.37 1024.37 1024.37 1024.41 1024.53 1024.65 1024.73 1024.73 1024.69 1024.69 1024.81 1024.85 1024.97 1025.13 1025.29 1025.45 1025.57 1025.69 1025.81 1025.77 1025.85 1026.09 1026.13 1026.25 1026.61 1026.77 1026.85 1026.93 1027.17 1027.33 1027.33 1027.29 1027.29 1027.29 1027.25 1026.97 1026.77 1026.65 1026.17 1026.05 1025.89 1025.89 1025.65 1025.41 1025.25 1025.17 1025.01 1024.85 1024.69
1021.45 1021.77 1022.13 1022.45 1022.89 1023.13 1023.25 1023.37 1023.49 1023.65 1023.85 1024.09 1024.25 1024.37 1024.49 1024.49 1024.57 1024.69 1024.73 1024.85 1024.89 1024.93 1024.93 1025.01 1025.13 1025.25 1025.37 1025.49 1025.65 1025.77 1025.97 1026.09 1026.09 1026.09 1026.17 1026.37 1026.49 1026.69 1026.81 1027.01 1027.17 1027.25 1027.41 1027.45 1027.45 1027.37 1027.45 1027.21 1027.25 1027.49 1027.21 1026.41 1026.17 1025.89 1026.29 1026.09 1025.89 1025.61 1025.25 1025.13 1025.09 1024.89 1024.73
1021.45 1021.85 1022.29 1022.57 1022.85 1023.09 1023.29 1023.41 1023.69 1023.89 1023.97 1024.29 1024.37 1024.53 1024.61 1024.69 1024.85 1024.97 1025.01 1025.09 1025.17 1025.21 1025.25 1025.33 1025.49 1025.61 1025.69 1025.77 1025.93 1026.09 1026.21 1026.33 1026.37 1026.37 1026.53 1026.61 1026.81 1027.05 1027.17 1027.25 1027.37 1027.45 1027.57 1027.61 1027.57 1027.65 1027.69 1027.77 1027.77 1027.77 1027.29 1026.17 1025.85 1026.37 1026.37 1026.33 1026.17 1025.93 1025.85 1025.21 1025.05 1024.85 1024.73
1021.57 1021.97 1022.33 1022.69 1022.93 1023.05 1023.29 1023.49 1023.77 1024.01 1024.21 1024.37 1024.53 1024.61 1024.81 1024.89 1025.09 1025.21 1025.29 1025.41 1025.45 1025.53 1025.61 1025.73 1025.85 1025.97 1026.05 1026.05 1026.21 1026.29 1026.41 1026.57 1026.61 1026.65 1026.89 1026.93 1027.17 1027.33 1027.45 1027.53 1027.45 1027.73 1027.81 1027.81 1027.81 1027.89 1027.93 1028.01 1028.05 1027.97 1027.65 1027.69 1027.29 1026.41 1026.69 1026.05 1025.93 1025.85 1025.77 1025.45 1024.85 1024.73 1024.65
1021.61 1021.89 1022.29 1022.65 1022.93 1023.17 1023.37 1023.61 1023.89 1024.17 1024.37 1024.49 1024.69 1024.85 1025.01 1025.17 1025.33 1025.41 1025.53 1025.69 1025.77 1025.85 1025.97 1026.09 1026.17 1026.21 1026.25 1026.29 1026.41 1026.53 1026.69 1026.81 1026.77 1026.97 1027.17 1027.29 1027.53 1027.61 1027.61 1027.69 1027.77 1027.93 1028.01 1028.01 1028.01 1028.05 1028.09 1028.13 1028.17 1028.09 1028.05 1028.01 1028.13 1028.29 1028.29 1027.61 1026.89 1026.85 1025.49 1025.61 1025.69 1024.61 1024.49
1021.57 1021.93 1022.25 1022.61 1022.97 1023.29 1023.61 1023.89 1024.09 1024.25 1024.49 1024.65 1024.81 1025.01 1025.17 1025.33 1025.49 1025.57 1025.73 1025.93 1026.09 1026.17 1026.25 1026.37 1026.41 1026.45 1026.41 1026.53 1026.61 1026.73 1026.85 1026.89 1026.97 1027.21 1027.41 1027.53 1027.73 1027.77 1027.85 1027.89 1027.97 1028.05 1028.17 1028.17 1028.25 1028.25 1028.25 1028.25 1028.21 1028.21 1028.29 1028.29 1028.17 1028.21 1028.61 1028.53 1027.73 1027.17 1026.53 1025.73 1025.73 1025.29 1024.57
1021.69 1022.01 1022.37 1022.69 1023.05 1023.37 1023.73 1023.97 1024.17 1024.45 1024.65 1024.81 1024.97 1025.17 1025.37 1025.53 1025.73 1025.89 1025.97 1026.17 1026.33 1026.45 1026.53 1026.57 1026.57 1026.61 1026.61 1026.65 1026.77 1026.89 1027.05 1027.05 1027.17 1027.41 1027.61 1027.69 1027.89 1027.93 1028.01 1028.09 1028.17 1028.25 1028.33 1028.37 1028.41 1028.41 1028.41 1028.33 1028.33 1028.37 1028.41 1028.41 1028.37 1028.41 1028.45 1028.57 1028.25 1026.89 1026.73 1026.45 1025.73 1025.41 1025.09
1021.81 1022.09 1022.45 1022.77 1023.17 1023.53 1023.81 1024.05 1024.29 1024.53 1024.77 1024.97 1025.17 1025.33 1025.53 1025.69 1025.89 1026.05 1026.25 1026.37 1026.53 1026.65 1026.69 1026.73 1026.69 1026.73 1026.77 1026.85 1026.97 1027.09 1027.25 1027.25 1027.37 1027.61 1027.85 1027.97 1028.09 1028.17 1028.17 1028.25 1028.37 1028.45 1028.53 1028.53 1028.53 1028.57 1028.57 1028.57 1028.57 1028.49 1028.45 1028.45 1028.49 1028.45 1028.45 1028.49 1028.45 1027.45 1026.57 1026.69 1026.05 1025.45 1025.13
1021.97 1022.29 1022.61 1022.93 1023.29 1023.73 1024.05 1024.25 1024.41 1024.65 1024.89 1025.13 1025.25 1025.45 1025.65 1025.89 1026.05 1026.21 1026.37 1026.49 1026.61 1026.73 1026.77 1026.85 1026.85 1026.85 1026.89 1027.01 1027.17 1027.25 1027.37 1027.41 1027.57 1027.85 1027.97 1028.17 1028.29 1028.33 1028.33 1028.41 1028.53 1028.69 1028.73 1028.57 1028.69 1028.69 1028.69 1028.69 1028.65 1028.57 1028.49 1028.37 1028.33 1028.49 1028.41 1028.37 1028.21 1027.53 1026.45 1026.21 1026.05 1025.57 1025.05
1022.13 1022.41 1022.77 1023.21 1023.57 1023.93 1024.21 1024.37 1024.53 1024.73 1024.97 1025.29 1025.33 1025.57 1025.81 1026.05 1026.21 1026.37 1026.49 1026.65 1026.73 1026.81 1026.85 1026.89 1026.93 1026.93 1027.05 1027.13 1027.25 1027.41 1027.53 1027.65 1027.81 1028.05 1028.13 1028.25 1028.45 1028.57 1028.61 1028.57 1028.69 1028.77 1028.81 1028.73 1028.77 1028.77 1028.85 1028.81 1028.73 1028.57 1028.45 1028.45 1028.29 1028.29 1028.37 1028.33 1028.09 1027.85 1026.97 1025.89 1025.77 1025.49 1025.17
1022.33 1022.61 1023.01 1023.41 1023.81 1024.13 1024.33 1024.49 1024.61 1024.81 1025.13 1025.41 1025.61 1025.69 1025.97 1026.17 1026.33 1026.45 1026.57 1026.73 1026.81 1026.89 1026.89 1026.97 1027.01 1027.01 1027.13 1027.17 1027.33 1027.53 1027.65 1027.73 1027.89 1028.05 1028.21 1028.45 1028.61 1028.73 1028.69 1028.73 1028.81 1028.77 1028.73 1028.61 1028.77 1028.89 1028.93 1028.85 1028.77 1028.57 1028.49 1028.45 1028.29 1028.17 1028.17 1028.21 1028.21 1027.85 1027.33 1026.53 1025.97 1025.61 1025.17
1022.45 1022.81 1023.17 1023.57 1023.93 1024.25 1024.41 1024.57 1024.73 1024.93 1025.25 1025.49 1025.73 1026.05 1026.13 1026.29 1026.37 1026.49 1026.61 1026.81 1026.89 1026.97 1027.01 1027.05 1027.09 1027.13 1027.21 1027.29 1027.37 1027.57 1027.77 1027.89 1028.05 1028.21 1028.37 1028.57 1028.69 1028.73 1028.77 1028.77 1028.81 1028.77 1028.77 1028.69 1028.77 1028.73 1028.85 1028.89 1028.73 1028.57 1028.45 1028.37 1028.29 1028.17 1028.05 1028.01 1028.01 1028.09 1027.53 1027.13 1025.97 1025.81 1025.25
1022.61 1022.97 1023.33 1023.73 1024.05 1024.29 1024.49 1024.69 1024.85 1025.05 1025.37 1025.65 1025.93 1026.13 1026.37 1026.41 1026.45 1026.53 1026.69 1026.85 1026.97 1027.05 1027.13 1027.17 1027.21 1027.29 1027.37 1027.41 1027.49 1027.65 1027.85 1028.01 1028.21 1028.33 1028.49 1028.61 1028.69 1028.77 1028.77 1028.77 1028.81 1028.81 1028.81 1028.73 1028.77 1028.81 1028.85 1028.61 1028.65 1028.57 1028.45 1028.37 1028.29 1028.17 1028.05 1027.97 1027.85 1027.81 1027.69 1027.17 1026.41 1025.81 1025.41
1022.77 1023.13 1023.45 1023.81 1024.09 1024.29 1024.53 1024.73 1024.97 1025.25 1025.37 1025.69 1026.05 1026.29 1026.41 1026.57 1026.53 1026.69 1026.85 1027.01 1027.09 1027.25 1027.29 1027.29 1027.29 1027.37 1027.45 1027.61 1027.73 1027.85 1027.97 1028.09 1028.29 1028.45 1028.57 1028.69 1028.77 1028.81 1028.77 1028.77 1028.77 1028.81 1028.77 1028.77 1028.89 1028.85 1028.77 1028.65 1028.57 1028.53 1028.49 1028.37 1028.29 1028.25 1028.13 1027.89 1027.73 1027.61 1027.53 1027.17 1026.69 1025.89 1025.29
1022.89 1023.21 1023.53 1023.85 1024.17 1024.37 1024.57 1024.81 1025.01 1025.33 1025.57 1025.69 1026.01 1026.37 1026.61 1026.73 1026.85 1026.85 1027.05 1027.17 1027.25 1027.37 1027.45 1027.49 1027.49 1027.53 1027.61 1027.73 1027.81 1027.93 1028.13 1028.29 1028.45 1028.57 1028.69 1028.73 1028.81 1028.85 1028.77 1028.73 1028.69 1028.73 1028.73 1028.81 1028.81 1028.85 1028.77 1028.69 1028.69 1028.57 1028.53 1028.45 1028.37 1028.33 1028.17 1027.89 1027.73 1027.57 1027.33 1027.09 1026.53 1026.13 1025.57
1022.93 1023.29 1023.61 1023.89 1024.17 1024.45 1024.69 1024.93 1025.21 1025.45 1025.65 1025.89 1026.17 1026.45 1026.65 1026.81 1027.05 1027.09 1027.17 1027.29 1027.49 1027.57 1027.57 1027.57 1027.61 1027.65 1027.69 1027.77 1027.89 1028.05 1028.17 1028.29 1028.49 1028.69 1028.77 1028.81 1028.77 1028.77 1028.73 1028.73 1028.73 1028.69 1028.73 1028.69 1028.65 1028.69 1028.81 1028.81 1028.73 1028.45 1028.41 1028.49 1028.45 1028.37 1028.17 1027.97 1027.77 1027.49 1027.25 1026.97 1026.65 1026.01 1025.57
1023.01 1023.33 1023.65 1024.01 1024.33 1024.61 1024.85 1025.13 1025.37 1025.61 1025.81 1026.09 1026.41 1026.65 1026.85 1026.93 1027.05 1027.21 1027.37 1027.41 1027.57 1027.69 1027.53 1027.53 1027.57 1027.57 1027.65 1027.85 1027.93 1028.05 1028.21 1028.33 1028.45 1028.61 1028.73 1028.77 1028.81 1028.77 1028.77 1028.81 1028.81 1028.81 1028.61 1028.49 1028.53 1028.61 1028.69 1028.85 1028.77 1028.61 1028.49 1028.57 1028.49 1028.37 1028.17 1027.93 1027.77 1027.49 1027.13 1026.89 1026.37 1025.93 1025.61
1023.05 1023.37 1023.73 1024.05 1024.45 1024.73 1025.01 1025.25 1025.49 1025.77 1026.01 1026.25 1026.57 1026.81 1026.97 1027.05 1027.05 1027.09 1027.21 1027.49 1027.65 1027.65 1027.61 1027.65 1027.61 1027.49 1027.45 1027.61 1027.89 1028.09 1028.33 1028.41 1028.53 1028.61 1028.69 1028.73 1028.77 1028.81 1028.81 1028.85 1028.89 1028.77 1028.65 1028.69 1028.61 1028.61 1028.69 1028.69 1028.65 1028.81 1028.81 1028.73 1028.65 1028.45 1028.17 1027.97 1027.69 1027.45 1027.21 1026.77 1026.41 1026.13 1025.69
1023.09 1023.41 1023.73 1024.17 1024.53 1024.85 1025.13 1025.37 1025.65 1025.93 1026.21 1026.45 1026.61 1026.81 1026.93 1027.01 1027.13 1027.17 1027.17 1027.33 1027.49 1027.61 1027.69 1027.69 1027.57 1027.45 1027.49 1027.57 1027.77 1027.97 1028.13 1028.45 1028.73 1028.81 1028.73 1028.65 1028.65 1028.69 1028.73 1028.81 1028.89 1028.89 1028.89 1028.85 1028.77 1028.77 1028.77 1028.69 1028.65 1028.61 1028.49 1028.45 1028.41 1028.41 1028.25 1028.01 1027.65 1027.41 1027.25 1026.93 1026.49 1026.17 1025.85
1023.01 1023.45 1023.81 1024.21 1024.53 1024.85 1025.17 1025.45 1025.69 1025.97 1026.25 1026.49 1026.69 1026.85 1026.97 1027.05 1027.17 1027.25 1027.37 1027.45 1027.41 1027.53 1027.65 1027.73 1027.57 1027.41 1027.41 1027.49 1027.61 1027.81 1028.09 1028.29 1028.57 1028.65 1028.65 1028.65 1028.65 1028.69 1028.73 1028.81 1028.97 1029.13 1029.13 1029.01 1029.05 1029.09 1028.89 1028.73 1028.69 1028.65 1028.61 1028.45 1028.21 1028.01 1028.01 1028.09 1027.89 1027.49 1027.21 1026.97 1026.53 1026.13 1025.93
1022.93 1023.41 1023.77 1024.13 1024.49 1024.85 1025.13 1025.41 1025.73 1025.97 1026.21 1026.45 1026.69 1026.77 1026.97 1027.09 1027.17 1027.37 1027.33 1027.29 1027.41 1027.57 1027.57 1027.77 1027.57 1027.37 1027.33 1027.41 1027.53 1027.69 1027.97 1028.17 1028.29 1028.53 1028.61 1028.61 1028.65 1028.69 1028.77 1028.81 1028.85 1028.97 1029.21 1029.21 1029.21 1029.25 1029.17 1028.97 1028.81 1028.69 1028.65 1028.45 1028.17 1027.97 1027.77 1027.57 1027.53 1027.49 1027.21 1026.97 1026.73 1026.21 1025.77
1022.81 1023.29 1023.69 1024.13 1024.45 1024.81 1025.05 1025.33 1025.65 1025.93 1026.21 1026.49 1026.61 1026.85 1027.05 1027.05 1027.25 1027.33 1027.33 1027.29 1027.49 1027.65 1027.61 1027.69 1027.61 1027.41 1027.33 1027.37 1027.53 1027.65 1027.93 1028.13 1028.29 1028.41 1028.49 1028.57 1028.61 1028.69 1028.81 1028.89 1029.01 1028.93 1029.01 1029.29 1029.41 1029.25 1029.21 1029.21 1029.09 1028.85 1028.61 1028.41 1028.13 1027.85 1027.65 1027.41 1027.25 1027.05 1026.97 1026.85 1026.69 1026.37 1025.61
1022.69 1023.25 1023.65 1024.05 1024.41 1024.73 1025.01 1025.45 1025.73 1025.97 1026.13 1026.29 1026.49 1026.61 1026.81 1026.97 1027.17 1027.33 1027.45 1027.49 1027.49 1027.61 1027.69 1027.73 1027.57 1027.41 1027.45 1027.49 1027.61 1027.73 1028.09 1028.29 1028.37 1028.45 1028.57 1028.61 1028.65 1028.73 1028.93 1029.09 1029.13 1029.17 1029.21 1029.33 1029.45 1029.41 1029.37 1029.33 1029.21 1028.97 1028.69 1028.29 1028.17 1028.05 1027.81 1027.45 1027.13 1026.97 1026.81 1026.61 1026.45 1026.13 1025.65
1022.57 1023.09 1023.53 1023.93 1024.29 1024.73 1025.13 1025.33 1025.65 1026.01 1026.25 1026.53 1026.73 1026.85 1027.01 1027.05 1027.17 1027.33 1027.53 1027.49 1027.41 1027.57 1027.81 1027.81 1027.61 1027.49 1027.45 1027.53 1027.61 1027.89 1028.13 1028.17 1028.33 1028.49 1028.61 1028.73 1028.81 1028.97 1028.97 1029.05 1029.05 1029.13 1029.25 1029.33 1029.37 1029.33 1029.41 1029.41 1029.25 1028.93 1028.49 1028.25 1028.01 1027.85 1027.61 1027.33 1027.13 1026.93 1026.73 1026.45 1026.21 1025.89 1025.49
1022.41 1022.89 1023.33 1023.77 1024.21 1024.65 1025.05 1025.49 1025.77 1025.93 1026.17 1026.45 1026.57 1026.69 1026.73 1026.89 1027.21 1027.37 1027.45 1027.45 1027.29 1027.57 1027.73 1027.81 1027.73 1027.61 1027.49 1027.53 1027.65 1027.97 1028.13 1028.25 1028.37 1028.45 1028.61 1028.77 1028.85 1028.93 1029.01 1029.05 1029.09 1029.25 1029.29 1029.29 1029.41 1029.37 1029.37 1029.37 1029.17 1028.85 1028.65 1028.33 1028.17 1027.85 1027.37 1027.05 1026.85 1026.65 1026.41 1026.13 1025.89 1025.57 1025.25
1022.13 1022.69 1023.13 1023.53 1024.05 1024.49 1024.89 1025.25 1025.53 1025.73 1025.81 1026.21 1026.41 1026.57 1026.77 1027.01 1027.33 1027.37 1027.29 1027.29 1027.25 1027.29 1027.65 1027.85 1027.77 1027.57 1027.49 1027.53 1027.49 1027.73 1028.05 1028.17 1028.45 1028.49 1028.65 1028.85 1028.93 1028.97 1029.01 1029.01 1029.09 1029.25 1029.29 1029.29 1029.37 1029.33 1029.33 1029.33 1028.93 1028.81 1028.65 1028.41 1028.05 1027.77 1027.37 1027.13 1026.85 1026.37 1026.09 1025.93 1025.65 1025.33 1024.93
1021.85 1022.41 1022.89 1023.41 1023.85 1024.37 1024.77 1025.05 1025.37 1025.69 1025.89 1026.05 1026.29 1026.65 1026.85 1027.01 1027.29 1027.41 1027.41 1027.29 1027.33 1027.17 1027.53 1027.73 1027.69 1027.53 1027.53 1027.65 1027.73 1027.97 1028.09 1028.21 1028.33 1028.57 1028.61 1028.65 1028.85 1028.93 1029.01 1029.09 1029.21 1029.29 1029.29 1029.33 1029.33 1029.29 1029.21 1029.17 1028.85 1028.69 1028.65 1028.45 1028.13 1027.89 1027.61 1027.61 1027.37 1026.89 1026.41 1026.05 1025.57 1025.33 1024.81
1021.69 1022.13 1022.65 1023.29 1023.77 1024.13 1024.57 1025.05 1025.41 1025.65 1025.97 1026.09 1026.37 1026.65 1026.89 1027.01 1027.01 1027.21 1027.37 1027.29 1027.33 1027.33 1027.37 1027.61 1027.65 1027.61 1027.61 1027.73 1027.81 1027.97 1028.17 1028.09 1028.21 1028.45 1028.61 1028.53 1028.49 1028.69 1028.73 1028.81 1029.05 1029.17 1029.17 1029.21 1029.13 1029.01 1028.97 1029.05 1028.77 1028.61 1028.57 1028.33 1028.13 1027.73 1027.53 1027.57 1027.29 1027.09 1026.73 1026.49 1026.01 1025.57 1025.17
1021.57 1022.01 1022.41 1022.97 1023.53 1024.01 1024.33 1024.73 1025.21 1025.53 1025.85 1026.21 1026.41 1026.65 1026.81 1026.97 1027.01 1027.13 1027.25 1027.29 1027.33 1027.45 1027.41 1027.41 1027.61 1027.65 1027.69 1027.81 1027.93 1027.85 1028.05 1028.01 1028.17 1028.33 1028.45 1028.53 1028.61 1028.49 1028.49 1028.57 1028.69 1028.89 1028.89 1029.01 1029.01 1028.93 1028.85 1028.77 1028.69 1028.49 1028.41 1028.21 1028.13 1027.97 1027.89 1027.61 1027.13 1026.97 1026.77 1026.37 1025.97 1025.49 1025.05
1021.33 1021.81 1022.41 1022.85 1023.37 1023.89 1024.25 1024.53 1024.85 1025.25 1025.69 1025.97 1026.25 1026.53 1026.77 1026.85 1026.89 1027.05 1027.21 1027.25 1027.29 1027.33 1027.41 1027.37 1027.45 1027.61 1027.65 1027.81 1027.93 1027.97 1027.93 1028.09 1028.21 1028.25 1028.41 1028.45 1028.57 1028.53 1028.57 1028.73 1028.61 1028.69 1028.81 1028.89 1028.85 1028.81 1028.73 1028.61 1028.45 1028.33 1028.13 1028.17 1028.09 1027.97 1027.77 1027.49 1027.25 1026.97 1026.69 1026.25 1025.81 1025.33 1024.97
1021.33 1021.73 1022.25 1022.61 1023.01 1023.65 1024.17 1024.53 1024.85 1025.17 1025.45 1025.85 1026.09 1026.37 1026.61 1026.81 1026.97 1027.05 1027.13 1027.25 1027.33 1027.33 1027.37 1027.41 1027.41 1027.45 1027.65 1027.77 1027.85 1027.97 1028.01 1028.17 1028.41 1028.29 1028.21 1028.21 1028.29 1028.37 1028.69 1028.77 1028.73 1028.77 1028.77 1028.73 1028.73 1028.73 1028.57 1028.41 1028.17 1028.05 1028.01 1027.93 1027.85 1027.77 1027.61 1027.37 1027.17 1026.93 1026.53 1026.17 1025.81 1025.33 1024.93
1021.17 1021.61 1022.01 1022.49 1022.89 1023.41 1023.97 1024.33 1024.69 1024.97 1025.17 1025.45 1025.85 1026.21 1026.53 1026.77 1026.85 1026.89 1026.93 1027.09 1027.21 1027.21 1027.29 1027.41 1027.45 1027.45 1027.57 1027.73 1027.85 1027.89 1028.05 1028.17 1028.25 1028.21 1028.29 1028.17 1028.33 1028.57 1028.49 1028.49 1028.57 1028.65 1028.65 1028.57 1028.57 1028.57 1028.37 1028.17 1027.93 1027.89 1027.85 1027.81 1027.77 1027.69 1027.49 1027.21 1026.97 1026.85 1026.57 1026.09 1025.73 1025.45 1025.13
Wind_Speed
6 7 6 6 5 5 6 5 5 5 5 5 5 6 5 5 5 6 6 6 7 6 6 6 6 5 5 6 7 7 8 7 8 8 7 6 6 3 5 7 8 8 8 8 5 3 3 1 3 3 3 7 4 6 7 7 9 9 8 6 10 9 7
7 7 6 5 5 5 8 5 6 5 5 6 6 6 6 6 5 6 6 7 7 6 6 5 5 6 8 9 9 10 10 9 9 7 9 7 6 5 3 5 5 6 7 7 7 4 4 2 0 3 6 5 3 5 6 5 6 7 8 7 8 9 8
7 7 6 6 5 5 7 6 5 5 5 6 6 6 6 6 6 6 6 7 7 6 5 6 7 9 9 10 10 9 9 11 8 9 9 7 7 6 7 4 6 3 4 4 7 5 3 5 3 4 5 6 5 3 4 5 6 6 7 7 6 8 7
9 9 8 7 6 6 6 5 5 5 5 6 5 5 6 5 6 5 6 7 6 6 6 7 8 9 8 9 9 11 11 11 9 10 10 8 7 8 9 8 8 8 6 6 5 5 5 4 4 4 5 6 3 5 6 6 5 4 7 6 7 7 8
10 8 9 8 6 7 6 6 5 6 5 5 5 6 5 5 6 6 6 7 6 6 7 7 7 8 7 8 8 8 9 9 9 9 9 11 11 9 9 7 7 6 6 6 4 4 5 5 4 3 5 4 2 0 3 4 3 4 5 8 8 6 7
8 9 9 7 5 6 6 6 6 6 5 6 5 6 5 5 5 7 7 6 6 6 7 8 8 8 8 8 9 9 9 10 8 9 10 11 10 8 7 6 6 6 6 4 4 4 4 3 4 5 3 2 1 3 2 3 5 3 3 7 8 6 7
9 8 7 7 6 6 6 6 6 5 6 5 5 5 4 5 6 6 6 7 7 7 7 8 8 8 8 8 9 10 10 8 9 11 11 10 10 8 6 7 6 6 6 5 5 5 6 6 6 7 4 2 2 1 2 3 4 4 2 4 7 5 5
8 7 6 6 7 7 6 7 5 5 6 5 5 4 5 6 6 6 6 7 7 7 7 8 7 8 8 8 8 9 8 7 9 9 10 11 10 9 8 6 6 6 5 5 5 6 5 5 5 5 7 9 5 0 5 1 3 2 4 6 6 4 6
7 7 6 6 5 6 6 7 6 5 5 5 5 5 5 6 6 7 7 7 7 7 7 8 8 7 7 8 8 8 9 6 9 11 9 10 10 10 8 7 7 6 5 5 5 5 5 4 4 4 5 7 8 8 7 5 7 3 1 8 6 1 7
9 9 8 8 7 6 6 6 6 6 6 6 6 5 6 6 6 7 7 7 7 7 7 7 7 7 7 8 8 9 9 8 8 9 8 7 8 7 7 8 6 5 5 4 5 5 5 4 4 4 5 6 4 3 7 7 6 5 7 9 8 7 10
8 8 8 9 7 7 6 6 6 7 6 5 6 5 6 7 6 7 7 7 7 7 7 7 7 7 8 8 8 8 7 8 8 7 6 7 7 6 6 6 6 6 5 5 5 5 5 4 5 5 4 4 3 4 3 5 6 1 6 8 6 7 10
8 8 8 8 7 8 8 7 7 7 6 6 6 6 7 7 7 6 7 7 7 7 6 7 7 7 7 8 8 8 7 8 8 8 6 6 5 6 7 8 6 6 5 5 5 5 5 5 4 4 4 3 3 3 2 1 5 3 1 9 7 8 10
8 9 8 9 8 8 7 7 8 8 7 6 6 6 7 7 7 7 6 7 7 6 7 6 7 7 7 7 7 7 7 8 9 8 7 6 5 6 7 8 6 6 5 5 5 5 5 5 4 4 3 2 2 2 1 1 2 9 5 6 8 10 10
9 8 9 8 8 7 7 6 7 7 7 6 7 7 7 7 7 7 7 7 7 7 7 7 6 6 7 7 7 7 7 8 9 7 6 7 5 6 6 7 7 6 4 6 5 4 4 4 4 3 3 3 3 2 2 2 4 8 7 3 6 8 9
8 8 9 8 8 8 7 8 8 7 8 6 7 8 8 6 6 7 7 7 7 7 7 7 6 6 7 7 7 5 7 7 8 7 6 7 6 5 6 7 7 5 4 5 5 5 4 3 4 3 4 3 3 3 1 2 3 5 10 8 6 6 8
8 9 10 8 8 7 7 8 7 9 8 7 5 7 7 7 7 7 7 7 7 6 7 7 6 7 7 7 7 6 6 7 7 7 7 6 6 5 6 6 6 5 4 6 5 4 4 4 3 4 4 3 4 5 3 1 2 4 7 9 8 9 8
9 9 9 8 9 8 7 7 7 9 8 7 7 5 6 7 7 7 8 7 7 7 7 6 6 6 7 7 7 7 6 6 6 6 6 6 5 5 6 6 5 5 5 6 6 6 5 3 4 4 5 5 4 5 5 4 2 3 4 8 9 9 8
9 9 9 8 9 9 8 8 7 8 8 8 7 7 5 6 7 7 7 7 7 6 7 7 7 7 6 6 7 7 6 6 6 5 5 5 4 5 5 5 4 5 5 6 6 6 5 7 5 4 5 5 5 5 5 4 5 4 5 8 9 8 9
9 10 9 9 10 9 8 8 8 6 8 9 7 6 7 5 6 7 7 7 6 6 6 6 7 7 7 6 6 6 6 6 5 5 5 5 5 4 5 4 4 4 5 6 5 6 6 8 7 6 6 6 5 5 6 6 5 6 5 7 8 10 7
9 9 9 9 8 8 8 8 8 8 6 9 8 7 6 7 4 8 7 6 6 6 6 6 6 6 6 7 7 7 6 5 5 4 4 4 4 4 4 3 3 3 4 4 5 5 6 7 5 6 4 5 6 5 6 6 6 6 6 7 7 7 9
9 9 9 9 9 8 8 8 8 7 7 8 8 7 7 7 5 6 6 6 5 5 6 6 5 6 6 7 6 6 6 6 5 5 4 4 3 3 3 1 0 3 3 3 5 5 5 6 5 6 5 5 5 6 6 6 6 6 6 6 7 9 7
8 9 9 9 9 8 8 8 7 7 7 7 6 6 6 8 8 7 6 6 6 4 5 5 5 6 6 6 6 7 6 6 6 6 5 4 3 2 1 1 2 4 4 10 10 7 7 5 4 6 7 6 6 6 6 5 6 6 6 6 7 6 8
10 10 10 10 9 8 8 8 8 8 7 7 7 6 7 6 7 8 8 6 5 4 5 4 4 7 7 7 6 5 5 5 6 6 6 5 3 2 2 3 3 7 9 9 9 10 10 10 9 5 4 4 5 6 6 6 6 6 6 7 8 8 9
10 10 10 9 9 9 9 8 8 8 8 7 7 6 6 7 7 6 8 7 6 5 4 3 6 8 9 10 7 6 6 5 4 4 5 5 4 3 3 4 4 5 6 7 7 10 11 11 11 11 11 10 7 4 5 6 7 6 7 7 7 7 7
11 10 10 10 10 9 8 8 8 8 8 8 6 6 7 7 6 6 6 6 6 5 4 4 7 8 10 10 8 7 6 6 5 5 4 4 4 3 3 4 4 3 4 6 6 6 8 11 11 11 11 11 11 11 7 3 5 6 7 7 8 8 7
11 11 10 10 9 9 9 9 9 9 8 7 6 7 7 7 6 5 6 7 5 3 3 5 8 9 9 10 10 8 6 6 6 5 5 4 4 3 2 4 5 4 4 8 6 5 6 8 9 10 10 10 9 9 11 11 7 5 5 6 7 9 8
12 11 10 10 9 9 9 9 8 7 7 7 7 7 6 7 6 6 5 6 5 4 4 4 9 10 10 10 10 7 6 6 6 5 5 5 4 4 2 2 4 5 6 5 5 6 7 6 6 7 7 7 7 9 9 11 10 10 8 5 6 8 9
12 11 10 10 9 9 9 8 8 7 7 8 8 8 8 7 5 5 5 6 6 4 2 4 8 10 10 10 10 7 6 5 5 4 4 3 4 3 2 1 1 3 5 5 3 6 6 6 6 6 7 7 7 6 7 8 7 6 6 5 6 7 9
11 11 11 10 10 9 9 9 9 7 6 6 5 5 4 5 6 6 6 6 6 5 3 4 7 9 11 11 10 6 6 6 5 5 4 3 3 2 2 1 1 4 5 5 5 8 7 5 4 6 7 8 8 7 6 5 8 9 7 6 6 7 8
12 12 11 11 9 9 9 8 7 6 8 7 7 6 7 5 5 6 6 5 7 5 3 3 6 9 10 11 8 6 6 5 5 5 5 4 3 3 1 1 2 3 4 4 6 8 8 6 4 5 6 7 7 7 8 7 10 10 11 13 13 14 14
13 12 11 11 11 9 8 7 8 7 9 9 7 7 6 5 5 5 6 6 6 7 4 4 6 8 9 8 8 7 6 6 5 5 4 3 2 2 2 3 2 2 4 4 7 8 8 5 4 4 5 7 9 10 9 8 7 9 13 13 13 14 15
12 12 12 10 10 10 9 9 7 6 6 6 7 6 5 6 5 3 4 5 7 8 6 4 6 8 8 8 7 6 6 6 6 4 4 3 1 1 2 2 3 3 3 4 7 6 6 4 3 4 4 5 7 8 8 7 8 9 9 9 9 10 10
12 12 12 10 9 10 8 7 8 7 6 6 7 6 5 6 6 5 4 3 4 6 7 5 5 8 8 8 8 6 5 6 6 5 3 3 2 1 2 2 2 2 4 5 7 8 7 5 3 4 2 4 6 9 7 8 7 6 7 7 8 8 8
12 11 11 11 10 8 8 9 8 8 8 6 6 6 6 5 6 5 4 4 5 4 4 6 4 7 8 8 8 7 5 5 5 5 5 3 2 0 3 4 4 4 6 7 7 8 8 7 5 3 3 3 4 6 8 6 8 9 7 7 7 7 7
11 11 10 11 11 9 7 9 9 9 7 7 8 7 6 5 6 5 4 3 3 4 2 4 5 4 6 7 7 6 5 5 6 6 5 3 1 1 3 4 4 5 7 7 7 8 9 7 7 3 4 6 9 9 6 5 5 5 6 5 6 7 6
10 9 10 11 12 11 9 9 8 8 9 8 8 8 7 6 5 5 4 3 3 3 2 1 4 3 4 6 7 6 5 5 5 4 5 3 3 3 3 4 4 5 7 7 7 8 8 8 5 4 7 9 8 9 6 3 4 5 6 6 6 7 7
10 10 11 11 11 12 10 9 9 8 9 8 7 6 5 5 5 5 6 5 4 3 2 3 2 3 3 5 5 6 6 6 7 4 4 3 3 4 4 4 4 6 7 7 8 8 8 7 4 7 8 9 9 6 4 4 4 5 5 6 7 8 8
Wind_Direction
114 119 111 100 95 95 76 63 63 53 48 50 56 51 53 66 70 69 70 71 72 66 69 63 70 73 81 69 69 71 70 59 62 79 76 36 68 48 40 55 62 58 53 56 61 100 138 266 328 349 38 0 2 29 28 27 29 26 21 15 25 20 17
104 108 103 92 89 85 84 67 67 59 55 49 48 49 48 52 65 71 69 70 70 70 74 77 81 80 75 73 65 62 64 63 62 71 76 63 59 56 60 46 54 61 59 62 43 39 82 78 272 27 345 336 336 24 21 20 30 29 24 14 21 19 17
111 99 93 95 88 87 87 81 80 72 66 64 51 51 57 56 64 69 75 76 81 85 84 89 86 73 67 67 66 71 71 75 67 68 75 78 71 67 63 74 63 50 65 48 42 28 27 53 61 356 344 357 7 356 8 9 20 29 23 13 7 15 13
123 118 110 98 100 93 99 93 89 88 72 69 66 57 57 61 74 72 79 80 79 85 84 77 71 74 71 73 73 72 69 75 75 76 76 71 73 66 59 52 60 55 60 56 23 24 42 27 353 12 348 3 338 336 12 355 6 19 22 15 6 7 4
131 128 124 128 132 123 120 110 104 85 71 71 69 72 58 64 81 78 78 81 81 80 75 75 74 75 77 77 73 74 76 74 76 77 75 71 66 68 59 55 59 62 58 58 45 38 42 47 45 347 350 335 342 348 331 339 332 358 19 15 5 357 358
123 126 130 129 136 129 130 121 105 99 95 83 69 81 63 72 86 84 79 81 82 77 82 80 79 79 81 81 82 82 81 78 78 80 77 70 69 66 68 57 62 57 56 51 48 48 46 58 41 19 347 294 271 318 309 352 353 326 9 17 358 345 351
131 133 135 128 132 127 128 116 110 113 105 103 93 83 79 81 72 81 88 86 86 88 86 84 83 82 84 87 87 87 84 84 83 79 79 78 72 68 67 67 55 54 55 43 45 44 38 30 29 21 331 314 245 4 346 343 349 347 319 13 353 330 344
130 126 125 129 133 126 115 110 106 106 107 101 95 89 83 88 90 88 88 88 87 86 84 84 83 85 89 92 90 91 87 85 83 81 78 78 74 69 63 62 67 54 48 43 42 47 44 46 42 18 15 10 8 158 2 339 344 42 341 324 347 308 353
118 117 114 113 111 117 121 118 116 109 107 102 88 90 78 95 97 93 89 91 93 91 89 91 94 96 98 98 95 93 91 85 88 81 81 77 75 72 71 66 65 55 44 42 46 46 50 48 51 40 38 55 31 351 342 341 1 338 334 349 329 252 345
130 131 130 127 121 114 112 115 113 112 104 100 99 95 97 93 98 101 99 98 95 95 94 95 100 101 101 97 96 95 91 88 85 83 79 77 77 73 70 64 70 64 47 44 43 42 40 44 47 52 50 57 55 41 0 331 344 343 330 360 345 325 340
129 125 127 127 124 119 115 111 114 109 108 108 106 102 102 101 99 99 102 100 101 101 103 103 104 105 102 95 94 90 91 91 86 81 75 81 75 75 73 66 60 62 48 47 46 36 41 41 38 42 52 44 53 57 32 346 313 301 300 329 331 317 326
124 123 123 124 126 128 128 126 117 116 108 106 104 106 103 101 103 100 105 107 109 109 109 108 107 103 101 100 94 92 85 87 87 81 75 77 73 73 70 68 55 61 45 47 41 36 31 34 29 34 40 41 41 70 54 348 321 272 35 321 314 312 315
126 129 131 132 131 130 130 128 124 114 115 107 106 106 106 108 109 110 110 115 114 114 111 107 105 104 99 96 98 94 87 90 86 82 76 64 74 70 73 67 54 54 37 43 40 33 29 27 26 23 14 31 41 26 45 307 269 289 318 295 300 305 314
128 126 126 128 125 126 127 121 113 118 111 108 114 109 107 109 112 115 119 118 121 120 117 111 107 106 99 98 95 95 91 86 88 85 83 72 60 66 65 65 55 48 38 49 36 28 24 14 13 9 2 4 12 32 350 308 292 298 293 275 302 311 313
126 125 125 126 126 129 130 124 123 114 109 110 114 113 111 110 112 116 115 117 116 116 114 113 114 108 107 105 100 98 97 89 90 87 84 79 66 57 62 67 49 42 39 62 37 31 17 12 0 358 2 357 342 344 336 291 304 304 309 314 311 309 307
128 127 127 129 128 127 126 120 121 117 114 108 98 109 117 117 117 115 112 114 115 113 114 114 114 113 112 112 109 104 102 104 102 100 91 88 87 81 66 62 52 39 21 41 30 24 17 6 345 358 354 349 344 334 333 303 300 303 304 306 312 315 320
129 131 131 134 131 129 125 119 119 113 113 112 109 95 108 120 117 116 114 112 114 116 110 109 110 115 120 118 115 111 108 106 105 107 109 108 96 85 86 70 51 47 38 41 16 8 7 347 0 353 354 351 343 335 328 332 311 296 297 312 318 321 318
132 132 131 132 130 128 124 121 118 118 116 110 110 113 99 110 116 117 120 123 119 116 118 117 116 118 120 123 122 120 118 115 116 117 122 120 104 99 89 84 71 56 44 39 16 10 341 357 356 1 354 345 345 335 331 326 320 304 301 304 304 307 310
134 135 134 133 132 130 127 123 121 116 123 118 110 107 116 113 119 118 116 117 114 113 113 116 121 127 125 119 114 112 115 117 121 125 119 104 110 110 110 103 81 73 53 43 13 353 354 357 351 360 346 342 345 339 328 323 318 319 309 299 305 308 315
138 137 134 133 131 128 127 127 124 125 123 122 123 120 112 113 107 117 115 116 116 118 117 116 122 124 123 120 121 119 113 109 109 110 106 112 117 126 118 115 93 56 33 25 13 9 357 352 348 334 346 342 340 334 326 317 320 316 314 308 302 299 304
137 134 133 131 130 128 125 123 121 121 120 120 123 130 133 125 119 108 116 112 114 118 120 119 121 127 128 130 127 126 130 127 116 98 99 107 120 131 139 143 273 348 337 300 354 6 25 345 335 335 350 347 335 329 318 316 316 314 313 312 313 313 317
134 133 131 129 128 128 125 123 122 121 118 114 114 120 124 128 123 109 101 111 117 122 125 139 152 146 133 131 134 137 142 137 128 120 111 104 98 107 148 312 357 296 345 4 355 355 2 9 358 346 335 341 324 320 313 313 313 311 310 314 310 310 316
137 135 133 133 133 130 128 127 124 122 119 120 122 124 123 122 126 130 123 118 121 128 131 150 159 159 150 144 144 138 136 139 133 129 125 118 94 81 36 40 352 356 4 350 352 352 351 355 3 354 314 304 304 306 309 313 315 317 318 322 323 326 324
139 139 137 132 133 132 131 129 125 123 124 127 131 134 129 128 130 131 133 136 136 138 145 165 153 145 140 139 139 146 149 142 116 109 120 131 136 104 33 23 15 4 3 351 349 351 344 357 351 341 332 325 318 307 307 315 313 319 327 315 317 318 318
141 140 138 139 139 137 133 131 130 131 131 130 131 125 129 134 133 133 127 131 136 149 153 157 158 148 143 145 146 147 146 142 133 132 137 145 145 118 65 20 9 22 351 356 1 345 346 347 342 333 328 322 321 321 318 299 303 318 319 320 319 318 316
143 143 145 142 139 138 137 132 133 136 139 139 131 134 141 135 137 138 136 137 140 148 150 154 157 154 147 140 137 136 146 147 142 141 148 155 161 135 86 29 3 1 6 4 355 348 353 340 330 325 321 315 312 321 327 322 314 295 303 304 310 309 313
146 146 144 142 140 140 140 142 141 137 132 132 135 134 138 138 139 144 147 139 139 148 142 149 150 145 139 134 133 126 135 142 140 145 152 161 166 175 141 71 21 340 342 359 344 354 350 335 325 325 324 323 326 325 324 324 320 324 324 309 304 301 301
145 145 144 143 142 141 140 136 140 147 147 151 151 154 153 147 152 147 144 138 132 129 128 144 144 136 133 128 122 114 119 114 120 116 123 139 165 144 119 129 328 322 318 330 349 0 341 326 323 315 313 318 323 315 309 306 318 324 318 309 301 287 292
146 145 146 145 142 142 144 149 148 147 136 130 126 126 125 134 145 150 153 142 128 125 124 144 140 133 127 122 115 108 115 122 123 120 109 115 109 111 136 146 63 348 316 324 345 350 344 325 317 317 319 319 319 317 302 282 303 311 309 307 299 296 296
149 149 149 148 147 147 146 145 146 146 139 146 147 153 158 154 151 151 152 150 132 133 142 154 145 136 128 124 111 110 114 108 120 121 125 113 97 80 93 151 103 336 313 330 350 342 336 332 314 321 321 318 313 315 317 322 325 320 325 323 318 313 311
151 152 153 153 153 151 150 147 154 160 153 154 157 160 152 137 152 161 154 157 152 140 158 169 155 140 135 133 131 133 135 125 124 129 129 86 61 62 8 31 13 331 324 332 344 332 327 323 323 318 327 327 328 332 324 330 328 329 331 328 327 326 325
153 154 155 155 153 151 155 158 155 147 148 143 146 143 139 143 150 159 164 162 159 140 150 161 154 144 139 135 128 128 129 133 131 136 135 133 355 76 4 350 310 306 324 340 330 322 323 319 300 312 317 326 319 314 308 318 320 323 328 332 327 333 325
155 155 154 151 153 152 146 140 148 147 145 142 140 143 140 148 152 166 178 166 150 150 145 162 154 143 137 137 138 131 138 133 152 155 145 146 90 328 359 327 258 279 331 351 340 332 324 307 277 289 300 329 315 309 320 321 309 310 316 307 309 314 316
155 155 153 153 151 148 152 150 146 147 143 136 132 137 146 151 148 159 164 145 145 164 156 150 153 146 140 138 144 138 149 151 155 146 142 124 112 327 323 316 299 318 340 342 334 325 313 300 286 265 258 271 258 282 303 304 309 326 310 313 312 318 318
155 152 151 149 150 151 151 150 150 149 144 143 146 147 150 151 151 155 159 148 159 176 184 145 152 145 147 151 151 146 138 166 159 138 130 118 111 227 252 260 286 311 328 328 325 315 301 293 288 279 269 271 286 297 305 298 300 306 318 312 326 326 328
154 151 154 156 151 151 153 153 152 149 147 147 148 150 153 152 147 156 164 180 206 193 216 104 146 146 159 165 163 162 155 147 165 139 140 165 196 229 245 260 270 292 308 316 313 301 290 282 290 271 290 303 303 307 301 317 320 325 326 331 331 330 337
154 155 156 155 155 152 157 158 156 159 157 154 155 154 155 153 155 162 170 193 210 237 209 153 153 149 156 173 177 175 170 165 165 172 156 176 192 221 259 262 276 298 304 304 301 290 281 270 264 287 305 306 309 309 316 323 336 332 322 331 337 339 332